This demonstration page uses our WeatherBlox Daily Observations layout. Learn more.

Left ArrowRight Arrow

Hourly Observations for June 17, 2017

Temp ( °F °C ) Dew Point ( °F °C ) Humidity (%) Winds ( mph kmh ) Pressure ( in mb ) Visibility ( mi km ) Precip ( " mm )
12:53 am 00:53 Clear 74 23.3 69 20.6 85 85 Calm 29.85 1011 10 16 0.00 0.00
1:53 am 01:53 Clear 74 23.3 69 20.6 85 85 SSW 3 6 29.83 1010 10 16 0.00 0.00
2:53 am 02:53 Clear 73 22.8 69 20.6 87 87 WSW 3 6 29.83 1010 10 16 0.00 0.00
3:53 am 03:53 Clear 72 22.2 69 20.6 91 91 SSW 5 7 29.82 1010 10 16 0.00 0.00
4:53 am 04:53 Clear 71 21.7 70 21.1 96 96 Calm 29.82 1010 10 16 0.00 0.00
5:53 am 05:53 Clear 70 21.1 69 20.6 97 97 SSW 3 6 29.84 1011 10 16 0.00 0.00
6:53 am 06:53 Sunny 68 20 68 20 100 100 Calm 29.86 1011 10 16 0.00 0.00
7:53 am 07:53 Sunny 72 22.2 70 21.1 94 94 Calm 29.88 1012 10 16 0.00 0.00
8:53 am 08:53 Partly Cloudy 74 23.3 70 21.1 88 88 SSE 7 11 29.88 1012 10 16 0.00 0.00
9:53 am 09:53 Sunny 79 26.1 72 22.2 79 79 VRB 3 6 29.88 1012 10 16 0.00 0.00
10:53 am 10:53 Mostly Sunny 81 27.2 71 21.7 72 72 SSW 5 7 29.87 1011 10 16 0.00 0.00
11:53 am 11:53 Mostly Sunny 84 28.9 70 21.1 63 63 Calm 29.88 1012 10 16 0.00 0.00
12:53 pm 12:53 Partly Cloudy 86 30 69 20.6 57 57 SSW 8 13 29.86 1011 10 16 0.00 0.00
1:53 pm 13:53 Mostly Sunny 87 30.6 68 20 53 53 SSW 3 6 29.83 1010 10 16 0.00 0.00
2:53 pm 14:53 Partly Cloudy 86 30 67 19.4 53 53 Calm 29.83 1010 10 16 0.00 0.00
3:53 pm 15:53 Sunny 90 32.2 66 18.9 45 45 Calm 29.80 1009 10 16 0.00 0.00
4:53 pm 16:53 Mostly Cloudy 86 30 70 21.1 59 59 S 5 7 29.80 1009 10 16 0.00 0.00
5:37 pm 17:37 Partly Cloudy with Nearby Thunderstorms 84 28.9 69 20.6 61 61 ENE 8 13 29.77 1008 10 16 0.00 0.00
5:53 pm 17:53 Sunny with Nearby Thunderstorms 83 28.3 70 21.1 65 65 E 7 11 29.82 1010 10 16 0.00 0.00
6:04 pm 18:04 Sunny 82 27.8 69 20.6 65 65 ESE 7 11 29.83 1010 10 16 0.00 0.00
6:53 pm 18:53 Mostly Cloudy 84 28.9 69 20.6 61 61 VRB 3 6 29.80 1009 10 16 0.00 0.00
7:53 pm 19:53 Cloudy with Nearby Thunderstorms 83 28.3 70 21.1 65 65 ESE 5 7 29.83 1010 10 16 0.00 0.00
8:16 pm 20:16 Cloudy with Light Rain 78 25.6 73 22.8 85 85 S 7 11 29.85 1011 10 16 0.00 0.03
8:41 pm 20:41 Mostly Cloudy with Nearby Thunderstorms 78 25.6 71 21.7 79 79 Calm 29.85 1011 10 16 0.00 0.03
8:53 pm 20:53 Mostly Cloudy 78 25.6 71 21.7 79 79 Calm 29.85 1011 10 16 0.00 0.03
9:53 pm 21:53 Partly Cloudy 76 24.4 74 23.3 94 94 Calm 29.86 1011 10 16 0.00 0.00
10:53 pm 22:53 Clear 77 25 72 22.2 85 85 SSE 5 7 29.88 1012 10 16 0.00 0.00
11:53 pm 23:53 Clear 76 24.4 72 22.2 88 88 SW 3 6 29.87 1011 10 16 0.00 0.00

Powered by AerisWeather